Presque Isle, ME

8:44 PM EDT on August 24, 2016 (GMT -0400)
Northern Maine Regional At Presque Isle

Weather History for KPQI - October, 2012

Change the Weather History Date:

Sunday, October 21, 2012

  Actual Average Record
Temperature  
Mean Temperature 52 °F -  
Max Temperature 59 °F 49 °F 72 °F (1947)
Min Temperature 46 °F 32 °F 17 °F (1972)
Degree Days  
Heating Degree Days 12    
Growing Degree Days 2 (Base 50)    
Moisture  
Dew Point 42 °F    
Average Humidity 69    
Maximum Humidity 94    
Minimum Humidity 51    
Precipitation  
Precipitation 0.01 in - - ()
Sea Level Pressure  
Sea Level Pressure 29.57 in    
Wind  
Wind Speed 7 mph (WSW)    
Max Wind Speed 20 mph    
Max Gust Speed 26 mph    
Visibility 10 miles    
Events      
Averages and records for this station are not official NWS values.
T = Trace of Precipitation, MM = Missing Value Source: NWS Daily Summary

Daily Weather History Graph

Daily Weather History Graph

Search for Another Location

Airport or City:

Trip Planner

Search our weather history database for the weather conditions in past years. The results will help you decide how hot, cold, wet, or windy it might be!

Date:

Astronomy

Oct. 21, 2012 Rise Set
Actual Time 6:58 AM EDT 5:33 PM EDT
Civil Twilight 6:28 AM EDT 6:04 PM EDT
Nautical Twilight 5:52 AM EDT 6:39 PM EDT
Astronomical Twilight 5:17 AM EDT 7:14 PM EDT
Moon 1:24 PM EDT (10/21) 11:17 PM EDT (10/21)
Length of Visible Light 11h 36m
Length of Day
10h 34m
Waxing Crescent, 45% of the Moon is Illuminated
Oct 21
Waxing Crescent
Oct 21
First Quarter
Oct 29
Full
Nov 6
Last Quarter
Nov 13
New

Hourly Weather History & Observations

Time (EDT) Temp. Windchill Dew Point Humidity Pressure Visibility Wind Dir Wind Speed Gust Speed Precip Events Conditions
12:15 AM 59.0 °F - 55.4 °F 88% 29.52 in 10.0 mi South 6.9 mph - N/A   Clear
12:35 AM 59.0 °F - 55.4 °F 88% 29.52 in 10.0 mi SSW 5.8 mph - N/A   Scattered Clouds
12:55 AM 59.0 °F - 55.4 °F 88% 29.53 in 10.0 mi Calm Calm - N/A   Overcast
1:15 AM 57.2 °F - 53.6 °F 88% 29.53 in 9.0 mi South 5.8 mph - N/A   Overcast
1:35 AM 57.2 °F - 55.4 °F 94% 29.54 in 10.0 mi SSW 5.8 mph - N/A   Overcast
1:55 AM 57.2 °F - 55.4 °F 94% 29.54 in 10.0 mi SW 3.5 mph - N/A   Overcast
2:15 AM 57.2 °F - 53.6 °F 88% 29.54 in 10.0 mi West 5.8 mph - N/A   Overcast
2:35 AM 57.2 °F - 51.8 °F 82% 29.55 in 10.0 mi West 4.6 mph - N/A   Mostly Cloudy
2:55 AM 55.4 °F - 51.8 °F 88% 29.55 in 10.0 mi WSW 4.6 mph - N/A   Mostly Cloudy
3:15 AM 55.4 °F - 50.0 °F 82% 29.56 in 10.0 mi West 8.1 mph - N/A   Mostly Cloudy
3:35 AM 55.4 °F - 48.2 °F 77% 29.55 in 10.0 mi West 8.1 mph - N/A   Overcast
3:55 AM 53.6 °F - 48.2 °F 82% 29.56 in 10.0 mi West 6.9 mph - N/A   Overcast
4:15 AM 53.6 °F - 48.2 °F 82% 29.55 in 10.0 mi West 4.6 mph - N/A   Overcast
4:35 AM 51.8 °F - 46.4 °F 82% 29.56 in 10.0 mi Calm Calm - N/A   Overcast
4:55 AM 51.8 °F - 46.4 °F 82% 29.56 in 10.0 mi Calm Calm - N/A   Overcast
5:15 AM 51.8 °F - 46.4 °F 82% 29.57 in 10.0 mi SSE 3.5 mph - N/A   Overcast
5:35 AM 51.8 °F - 46.4 °F 82% 29.57 in 10.0 mi West 4.6 mph - N/A   Mostly Cloudy
5:55 AM 51.8 °F - 46.4 °F 82% 29.58 in 10.0 mi SW 9.2 mph - N/A   Overcast
6:15 AM 51.8 °F - 46.4 °F 82% 29.58 in 10.0 mi WSW 6.9 mph - N/A   Overcast
6:35 AM 51.8 °F - 44.6 °F 76% 29.57 in 10.0 mi West 6.9 mph - N/A   Mostly Cloudy
6:55 AM 50.0 °F - 44.6 °F 82% 29.59 in 10.0 mi WSW 6.9 mph - N/A   Mostly Cloudy
7:15 AM 50.0 °F - 44.6 °F 82% 29.60 in 10.0 mi WSW 6.9 mph - N/A   Overcast
7:35 AM 50.0 °F - 44.6 °F 82% 29.60 in 10.0 mi SW 5.8 mph - N/A   Overcast
7:55 AM 50.0 °F - 42.8 °F 76% 29.61 in 10.0 mi SW 5.8 mph - N/A   Overcast
8:15 AM 50.0 °F - 42.8 °F 76% 29.61 in 10.0 mi SW 4.6 mph - N/A   Mostly Cloudy
8:35 AM 51.8 °F - 42.8 °F 71% 29.60 in 10.0 mi WSW 6.9 mph - N/A   Overcast
8:55 AM 50.0 °F - 42.8 °F 76% 29.60 in 10.0 mi SW 5.8 mph - N/A   Mostly Cloudy
9:15 AM 50.0 °F - 41.0 °F 71% 29.60 in 10.0 mi WSW 5.8 mph - N/A   Mostly Cloudy
9:35 AM 51.8 °F - 42.8 °F 71% 29.60 in 10.0 mi West 4.6 mph - N/A   Scattered Clouds
9:55 AM 53.6 °F - 39.2 °F 58% 29.60 in 10.0 mi West 16.1 mph - N/A   Clear
10:15 AM 53.6 °F - 41.0 °F 62% 29.60 in 10.0 mi West 12.7 mph 19.6 mph N/A   Clear
10:35 AM 53.6 °F - 39.2 °F 58% 29.60 in 10.0 mi West 11.5 mph 17.3 mph N/A   Partly Cloudy
10:55 AM 55.4 °F - 39.2 °F 54% 29.60 in 10.0 mi West 9.2 mph - N/A   Clear
11:15 AM 55.4 °F - 39.2 °F 54% 29.61 in 10.0 mi West 11.5 mph - N/A   Clear
11:35 AM 55.4 °F - 39.2 °F 54% 29.61 in 10.0 mi West 9.2 mph - N/A   Partly Cloudy
11:55 AM 55.4 °F - 39.2 °F 54% 29.61 in 10.0 mi West 19.6 mph 26.5 mph N/A   Mostly Cloudy
12:15 PM 55.4 °F - 39.2 °F 54% 29.60 in 10.0 mi WSW 13.8 mph 18.4 mph N/A   Mostly Cloudy
12:35 PM 55.4 °F - 39.2 °F 54% - 10.0 mi WSW 11.5 mph 17.3 mph N/A   Mostly Cloudy
12:55 PM 55.4 °F - 39.2 °F 54% 29.59 in 10.0 mi WSW 10.4 mph 17.3 mph N/A   Overcast
1:15 PM 55.4 °F - 37.4 °F 51% 29.59 in 10.0 mi WSW 10.4 mph - N/A   Overcast
1:35 PM 55.4 °F - 39.2 °F 54% 29.58 in 10.0 mi WSW 9.2 mph - N/A   Overcast
1:55 PM 55.4 °F - 39.2 °F 54% 29.57 in 10.0 mi WSW 9.2 mph - N/A   Overcast
2:15 PM 55.4 °F - 39.2 °F 54% 29.57 in 10.0 mi SW 8.1 mph - N/A   Overcast
2:35 PM 55.4 °F - 39.2 °F 54% 29.57 in 10.0 mi SSW 9.2 mph - N/A   Overcast
2:55 PM 55.4 °F - 37.4 °F 51% 29.56 in 10.0 mi WSW 12.7 mph 18.4 mph N/A   Overcast
3:15 PM 55.4 °F - 37.4 °F 51% 29.56 in 10.0 mi SW 12.7 mph - N/A   Overcast
3:35 PM 53.6 °F - 39.2 °F 58% 29.56 in 10.0 mi SW 10.4 mph - N/A   Overcast
3:55 PM 53.6 °F - 39.2 °F 58% - 10.0 mi SW 8.1 mph - N/A   Overcast
4:15 PM 53.6 °F - 39.2 °F 58% 29.57 in 10.0 mi SW 12.7 mph 19.6 mph N/A   Overcast
4:35 PM 51.8 °F - 39.2 °F 62% 29.56 in 10.0 mi WSW 15.0 mph - N/A   Overcast
4:55 PM 51.8 °F - 39.2 °F 62% 29.56 in 10.0 mi SW 13.8 mph 20.7 mph N/A   Mostly Cloudy
5:15 PM 51.8 °F - 39.2 °F 62% 29.56 in 10.0 mi SW 11.5 mph 16.1 mph N/A   Overcast
5:35 PM 51.8 °F - 39.2 °F 62% 29.56 in 10.0 mi SW 11.5 mph 17.3 mph N/A   Overcast
5:55 PM 51.8 °F - 39.2 °F 62% 29.56 in 10.0 mi SW 11.5 mph - N/A   Overcast
6:15 PM 51.8 °F - 37.4 °F 58% 29.56 in 10.0 mi SW 9.2 mph - N/A   Overcast
6:35 PM 51.8 °F - 39.2 °F 62% 29.56 in 10.0 mi SW 10.4 mph - N/A   Overcast
6:55 PM 50.0 °F - 37.4 °F 62% 29.56 in 10.0 mi SW 8.1 mph - N/A   Overcast
7:15 PM 50.0 °F - 37.4 °F 62% 29.56 in 10.0 mi SW 11.5 mph - N/A   Overcast
7:35 PM 50.0 °F - 37.4 °F 62% 29.55 in 10.0 mi SW 9.2 mph - N/A   Overcast
7:55 PM 48.2 °F - 37.4 °F 66% 29.55 in 10.0 mi WSW 8.1 mph - N/A   Overcast
8:15 PM 48.2 °F - 37.4 °F 66% 29.55 in 10.0 mi WSW 6.9 mph - N/A   Overcast
8:35 PM 48.2 °F - 37.4 °F 66% 29.54 in 10.0 mi WSW 8.1 mph - N/A   Mostly Cloudy
8:55 PM 48.2 °F - 37.4 °F 66% 29.55 in 10.0 mi WSW 6.9 mph - N/A   Partly Cloudy
9:15 PM 46.4 °F 43.5 °F 37.4 °F 71% 29.55 in 10.0 mi WSW 5.8 mph - N/A   Scattered Clouds
9:35 PM 48.2 °F - 37.4 °F 66% 29.55 in 10.0 mi WSW 3.5 mph - N/A   Overcast
9:55 PM 48.2 °F - 37.4 °F 66% 29.54 in 10.0 mi West 5.8 mph - N/A   Overcast
10:15 PM 48.2 °F - 37.4 °F 66% 29.54 in 10.0 mi West 10.4 mph - N/A   Scattered Clouds
10:36 PM 46.4 °F 41.9 °F 37.4 °F 71% 29.54 in 10.0 mi WSW 9.2 mph - N/A   Clear
10:55 PM 46.4 °F 40.7 °F 37.4 °F 71% 29.53 in 10.0 mi WSW 12.7 mph 16.1 mph N/A   Clear
11:15 PM 46.4 °F 40.4 °F 37.4 °F 71% 29.53 in 10.0 mi WSW 13.8 mph 19.6 mph N/A   Scattered Clouds
11:35 PM 48.2 °F - 37.4 °F 66% 29.53 in 10.0 mi WSW 12.7 mph 19.6 mph N/A   Overcast
11:55 PM 48.2 °F - 37.4 °F 66% 29.53 in 10.0 mi WSW 10.4 mph - N/A   Overcast